FENGYUN 1C DEB, 30432

Orbit data source: Space-Track

FENGYUN 1C DEB, 30432 is space debris in SSO originally from a launch on Mon, 10 May 1999 UTC launched from the Taiyaun Space Center, China (TSC). Fengyun 1C debris stems from the Chinese weather satellite Fengyun-1C, which was intentionally destroyed by a Chinese anti-satellite missile in 2007. This event dramatically increased the amount of space debris, with thousands of trackable fragments posing hazards to satellites and human spaceflight. The Fengyun 1C debris cloud has become a focal point in discussions about space sustainability and the need for international regulations to prevent the creation of new debris.

Loading next visibility...
Identifier
30432, 1999-025AET
Orbit
SSO
Country
Flag of CNCN / PRC
Related business
Manufacturer
Unknown
Mission
Spacecraft
Bus & Motor
Unknown
Mass
Unknown
Launch date (UTC)
1999-05-10 (27 years ago)
Launch vehicle
Unknown
Launch site
Taiyaun Space Center, China (TSC)
Object type
Payload
Rocket body
Debris
Shape & HBR
Unknown shape, 0.1 m
Radar Cross Section
Small (<0.1 m²)

Expand to show TLE details & history
Last TLE update: 16 hours ago

TLE from 16 hours ago
0 FENGYUN 1C DEB
1 30432U 99025AET 26106.20578922  .00000969  00000-0  30303-3 0  9993
2 30432  98.8292  14.1720 0081890 329.3927  30.2496 14.41233639  5272
Epoch: 2026-04-16T04:56Z
TLE epoch observation values (Epoch: 2026-04-16T04:56:20.188Z)
Latitude
-0.00007°
Longitude
95.73123°
Altitude
707.022 km
Speed
7.529 km/s
True Right ascension
00h 56m 41s
True Declination
0° 00' 00"
Sunlit
Object was in daylight at epoch
Visualization orbit readout
Latitude
Unknown
Longitude
Unknown
Altitude
Unknown
Speed
Unknown
Apparent Right ascension
Unknown
Apparent Declination
Unknown
Sunlit
N/A
Visualization observer readout
Local Sidereal Time
03:38:07
Azimuth
Unknown
Elevation
Unknown
Doppler factor
Unknown
Orbital elements
Apogee altitude
809.946 km
Perigee altitude
693.176 km
Semi-major axis
7,129.698 km
Eccentricity
0.00819
Inclination
98.8292°
RAAN
14.172°
Arg. of periapsis
329.3927°
True anomaly
30.72654°
Mean anomaly
30.2496°
Eccentric anomaly
30.48765°
Mean motion
3.60526 °/min
Orbital period
99.85 mins
BSTAR
0.00030303
Loading maneuver chart data...
Computing Atmospheric mass density...
Loading historical data...
Loading historical data...
Loading historical data...
Loading historical data...
Loading historical data...
Loading historical data...
Loading historical data...

Documentation

Showing up to 5 results
|